Time,TemperatureF,DewpointF,PressureIn,WindDirection,WindDirectionDegrees,WindSpeedMPH,WindSpeedGustMPH,Humidity,HourlyPrecipIn,Conditions,Clouds,dailyrainin,SolarRadiationWatts/m^2,SoftwareType,DateUTC
2013-02-22 00:01:00,11.0,-1.0,-100.00,West,264,11.0,17.0,58,0.00,,,0.00,0.000000,,2013-02-22 08:01:00,
2013-02-22 00:11:00,11.0,-1.0,-100.00,West,264,11.0,17.0,58,0.00,,,0.00,0.000000,,2013-02-22 08:11:00,
2013-02-22 00:32:00,12.0,2.0,-100.00,WNW,287,14.0,22.0,63,0.00,,,-99.99,0.000000,,2013-02-22 08:32:00,
2013-02-22 00:42:00,12.0,2.0,-100.00,WNW,287,14.0,22.0,63,0.00,,,-99.99,0.000000,,2013-02-22 08:42:00,
2013-02-22 00:52:00,12.0,2.0,-100.00,WNW,287,14.0,22.0,63,0.00,,,-99.99,0.000000,,2013-02-22 08:52:00,
2013-02-22 01:03:00,12.0,2.0,-100.00,WNW,287,14.0,22.0,63,0.00,,,-99.99,0.000000,,2013-02-22 09:03:00,
2013-02-22 01:11:00,12.0,2.0,-100.00,WNW,287,14.0,22.0,63,0.00,,,-99.99,0.000000,,2013-02-22 09:11:00,
2013-02-22 01:32:00,13.0,4.0,-100.00,West,280,15.0,24.0,66,0.00,,,0.00,0.000000,,2013-02-22 09:32:00,
2013-02-22 01:42:00,13.0,4.0,-100.00,West,280,15.0,24.0,66,0.00,,,0.00,0.000000,,2013-02-22 09:42:00,
2013-02-22 01:52:00,13.0,4.0,-100.00,West,280,15.0,24.0,66,0.00,,,0.00,0.000000,,2013-02-22 09:52:00,
2013-02-22 02:01:00,13.0,4.0,-100.00,West,280,15.0,24.0,66,0.00,,,0.00,0.000000,,2013-02-22 10:01:00,
2013-02-22 02:11:00,13.0,4.0,-100.00,West,280,15.0,24.0,66,0.00,,,0.00,0.000000,,2013-02-22 10:11:00,
2013-02-22 02:42:00,14.0,6.0,-100.00,WNW,292,22.0,32.0,69,0.00,,,0.00,0.000000,,2013-02-22 10:42:00,
2013-02-22 02:52:00,14.0,6.0,-100.00,WNW,292,22.0,32.0,69,0.00,,,0.00,0.000000,,2013-02-22 10:52:00,
2013-02-22 03:01:00,14.0,6.0,-100.00,WNW,292,22.0,32.0,69,0.00,,,0.00,0.000000,,2013-02-22 11:01:00,
2013-02-22 03:11:00,14.0,6.0,-100.00,WNW,292,22.0,32.0,69,0.00,,,0.00,0.000000,,2013-02-22 11:11:00,
2013-02-22 03:32:00,14.0,6.0,-100.00,West,279,20.0,32.0,70,0.00,,,0.00,0.000000,,2013-02-22 11:32:00,
2013-02-22 03:42:00,14.0,6.0,-100.00,West,279,20.0,32.0,70,0.00,,,0.00,0.000000,,2013-02-22 11:42:00,
2013-02-22 03:52:00,14.0,6.0,-100.00,West,279,20.0,32.0,70,0.00,,,0.00,0.000000,,2013-02-22 11:52:00,
2013-02-22 04:02:00,14.0,6.0,-100.00,West,279,20.0,32.0,70,0.00,,,0.00,0.000000,,2013-02-22 12:02:00,
2013-02-22 04:11:00,14.0,6.0,-100.00,West,279,20.0,32.0,70,0.00,,,0.00,0.000000,,2013-02-22 12:11:00,
2013-02-22 04:32:00,13.0,6.0,-100.00,WNW,290,20.0,30.0,72,0.00,,,0.00,0.000000,,2013-02-22 12:32:00,
2013-02-22 04:42:00,13.0,6.0,-100.00,WNW,290,20.0,30.0,72,0.00,,,0.00,0.000000,,2013-02-22 12:42:00,
2013-02-22 04:52:00,13.0,6.0,-100.00,WNW,290,20.0,30.0,72,0.00,,,0.00,0.000000,,2013-02-22 12:52:00,
2013-02-22 05:01:00,13.0,6.0,-100.00,WNW,290,20.0,30.0,72,0.00,,,0.00,0.000000,,2013-02-22 13:01:00,
2013-02-22 05:11:00,13.0,6.0,-100.00,WNW,290,20.0,30.0,72,0.00,,,0.00,0.000000,,2013-02-22 13:11:00,
2013-02-22 05:42:00,13.0,6.0,-100.00,West,279,18.0,27.0,74,0.00,,,-99.99,0.000000,,2013-02-22 13:42:00,
2013-02-22 05:52:00,13.0,6.0,-100.00,West,279,18.0,27.0,74,0.00,,,-99.99,0.000000,,2013-02-22 13:52:00,
2013-02-22 06:01:00,13.0,6.0,-100.00,West,279,18.0,27.0,74,0.00,,,-99.99,0.000000,,2013-02-22 14:01:00,
2013-02-22 06:11:00,13.0,6.0,-100.00,West,279,18.0,27.0,74,0.00,,,-99.99,0.000000,,2013-02-22 14:11:00,
2013-02-22 06:32:00,12.0,6.0,-100.00,West,281,24.0,30.0,78,0.00,,,0.00,0.000000,,2013-02-22 14:32:00,
2013-02-22 06:42:00,12.0,6.0,-100.00,West,281,24.0,30.0,78,0.00,,,0.00,0.000000,,2013-02-22 14:42:00,
2013-02-22 06:53:00,12.0,6.0,-100.00,West,281,24.0,30.0,78,0.00,,,0.00,0.000000,,2013-02-22 14:53:00,
2013-02-22 07:01:00,12.0,6.0,-100.00,West,281,24.0,30.0,78,0.00,,,0.00,0.000000,,2013-02-22 15:01:00,
2013-02-22 07:11:00,12.0,6.0,-100.00,West,281,24.0,30.0,78,0.00,,,0.00,0.000000,,2013-02-22 15:11:00,
2013-02-22 07:32:00,13.0,7.0,-100.00,WNW,289,17.0,28.0,77,0.00,,,0.00,68.000000,,2013-02-22 15:32:00,
2013-02-22 07:42:00,13.0,7.0,-100.00,WNW,289,17.0,28.0,77,0.00,,,0.00,68.000000,,2013-02-22 15:42:00,
2013-02-22 07:52:00,13.0,7.0,-100.00,WNW,289,17.0,28.0,77,0.00,,,0.00,68.000000,,2013-02-22 15:52:00,
2013-02-22 08:01:00,13.0,7.0,-100.00,WNW,289,17.0,28.0,77,0.00,,,0.00,68.000000,,2013-02-22 16:01:00,
2013-02-22 08:11:00,13.0,7.0,-100.00,WNW,289,17.0,28.0,77,0.00,,,0.00,68.000000,,2013-02-22 16:11:00,
2013-02-22 08:32:00,16.0,8.0,-100.00,WNW,287,21.0,27.0,71,0.00,,,0.00,253.000000,,2013-02-22 16:32:00,
2013-02-22 08:42:00,16.0,8.0,-100.00,WNW,287,21.0,27.0,71,0.00,,,0.00,253.000000,,2013-02-22 16:42:00,
2013-02-22 08:52:00,16.0,8.0,-100.00,WNW,287,21.0,27.0,71,0.00,,,0.00,253.000000,,2013-02-22 16:52:00,
2013-02-22 09:01:00,16.0,8.0,-100.00,WNW,287,21.0,27.0,71,0.00,,,0.00,253.000000,,2013-02-22 17:01:00,
2013-02-22 09:11:00,16.0,8.0,-100.00,WNW,287,21.0,27.0,71,0.00,,,0.00,253.000000,,2013-02-22 17:11:00,
2013-02-22 09:42:00,17.0,9.0,-100.00,WNW,295,0.0,26.0,69,0.00,,,0.00,484.000000,,2013-02-22 17:42:00,
2013-02-22 09:52:00,17.0,9.0,-100.00,WNW,295,0.0,26.0,69,0.00,,,0.00,484.000000,,2013-02-22 17:52:00,
2013-02-22 10:01:00,17.0,9.0,-100.00,WNW,295,0.0,26.0,69,0.00,,,0.00,484.000000,,2013-02-22 18:01:00,
2013-02-22 10:11:00,17.0,9.0,-100.00,WNW,295,0.0,26.0,69,0.00,,,0.00,484.000000,,2013-02-22 18:11:00,
2013-02-22 10:32:00,21.0,10.0,-100.00,NW,310,7.0,18.0,61,0.00,,,-99.99,619.000000,,2013-02-22 18:32:00,
2013-02-22 10:42:00,21.0,10.0,-100.00,NW,310,7.0,18.0,61,0.00,,,-99.99,619.000000,,2013-02-22 18:42:00,
2013-02-22 10:52:00,21.0,10.0,-100.00,NW,310,7.0,18.0,61,0.00,,,-99.99,619.000000,,2013-02-22 18:52:00,
2013-02-22 11:01:00,21.0,10.0,-100.00,NW,310,7.0,18.0,61,0.00,,,-99.99,619.000000,,2013-02-22 19:01:00,
2013-02-22 11:11:00,21.0,10.0,-100.00,NW,310,7.0,18.0,61,0.00,,,-99.99,619.000000,,2013-02-22 19:11:00,
2013-02-22 11:31:00,22.0,8.0,-100.00,WNW,293,14.0,20.0,53,0.00,,,0.00,692.000000,,2013-02-22 19:31:00,
2013-02-22 11:42:00,22.0,8.0,-100.00,WNW,293,14.0,20.0,53,0.00,,,0.00,692.000000,,2013-02-22 19:42:00,
2013-02-22 11:52:00,22.0,8.0,-100.00,WNW,293,14.0,20.0,53,0.00,,,0.00,692.000000,,2013-02-22 19:52:00,
2013-02-22 12:01:00,22.0,8.0,-100.00,WNW,293,14.0,20.0,53,0.00,,,0.00,692.000000,,2013-02-22 20:01:00,
2013-02-22 12:11:00,22.0,8.0,-100.00,WNW,293,14.0,20.0,53,0.00,,,0.00,692.000000,,2013-02-22 20:11:00,
2013-02-22 12:42:00,23.0,6.0,-100.00,WNW,294,16.0,24.0,47,0.00,,,0.00,710.000000,,2013-02-22 20:42:00,
2013-02-22 12:52:00,23.0,6.0,-100.00,WNW,294,16.0,24.0,47,0.00,,,0.00,710.000000,,2013-02-22 20:52:00,
2013-02-22 13:01:00,23.0,6.0,-100.00,WNW,294,16.0,24.0,47,0.00,,,0.00,710.000000,,2013-02-22 21:01:00,
2013-02-22 13:11:00,23.0,6.0,-100.00,WNW,294,16.0,24.0,47,0.00,,,0.00,710.000000,,2013-02-22 21:11:00,
2013-02-22 13:42:00,24.0,9.0,-100.00,West,267,4.0,22.0,51,0.00,,,0.00,665.000000,,2013-02-22 21:42:00,
2013-02-22 13:52:00,24.0,9.0,-100.00,West,267,4.0,22.0,51,0.00,,,0.00,665.000000,,2013-02-22 21:52:00,
2013-02-22 14:01:00,24.0,9.0,-100.00,West,267,4.0,22.0,51,0.00,,,0.00,665.000000,,2013-02-22 22:01:00,
2013-02-22 14:11:00,24.0,9.0,-100.00,West,267,4.0,22.0,51,0.00,,,0.00,665.000000,,2013-02-22 22:11:00,
2013-02-22 14:42:00,23.0,9.0,-100.00,WSW,257,10.0,17.0,55,0.00,,,0.00,408.000000,,2013-02-22 22:42:00,
2013-02-22 14:52:00,23.0,9.0,-100.00,WSW,257,10.0,17.0,55,0.00,,,0.00,408.000000,,2013-02-22 22:52:00,
2013-02-22 15:01:00,23.0,9.0,-100.00,WSW,257,10.0,17.0,55,0.00,,,0.00,408.000000,,2013-02-22 23:01:00,
2013-02-22 15:11:00,23.0,9.0,-100.00,WSW,257,10.0,17.0,55,0.00,,,0.00,408.000000,,2013-02-22 23:11:00,
2013-02-22 15:42:00,23.0,12.0,-100.00,WSW,240,10.0,20.0,61,0.00,,,0.00,246.000000,,2013-02-22 23:42:00,
2013-02-22 15:52:00,23.0,12.0,-100.00,WSW,240,10.0,20.0,61,0.00,,,0.00,246.000000,,2013-02-22 23:52:00,
2013-02-22 16:01:00,23.0,12.0,-100.00,WSW,240,10.0,20.0,61,0.00,,,0.00,246.000000,,2013-02-23 00:01:00,
2013-02-22 16:11:00,23.0,12.0,-100.00,WSW,240,10.0,20.0,61,0.00,,,0.00,246.000000,,2013-02-23 00:11:00,
2013-02-22 16:32:00,20.0,10.0,-100.00,West,262,15.0,22.0,65,0.00,,,0.00,154.000000,,2013-02-23 00:32:00,
2013-02-22 16:42:00,20.0,10.0,-100.00,West,262,15.0,22.0,65,0.00,,,0.00,154.000000,,2013-02-23 00:42:00,
2013-02-22 16:52:00,20.0,10.0,-100.00,West,262,15.0,22.0,65,0.00,,,0.00,154.000000,,2013-02-23 00:52:00,
2013-02-22 17:01:00,20.0,10.0,-100.00,West,262,15.0,22.0,65,0.00,,,0.00,154.000000,,2013-02-23 01:01:00,
2013-02-22 17:11:00,20.0,10.0,-100.00,West,262,15.0,22.0,65,0.00,,,0.00,154.000000,,2013-02-23 01:11:00,
2013-02-22 17:32:00,18.0,10.0,-100.00,WSW,248,14.0,27.0,70,0.00,,,0.00,49.000000,,2013-02-23 01:32:00,
2013-02-22 17:42:00,18.0,10.0,-100.00,WSW,248,14.0,27.0,70,0.00,,,0.00,49.000000,,2013-02-23 01:42:00,
2013-02-22 17:52:00,18.0,10.0,-100.00,WSW,248,14.0,27.0,70,0.00,,,0.00,49.000000,,2013-02-23 01:52:00,
2013-02-22 18:01:00,18.0,10.0,-100.00,WSW,248,14.0,27.0,70,0.00,,,0.00,49.000000,,2013-02-23 02:01:00,
2013-02-22 18:11:00,18.0,10.0,-100.00,WSW,248,14.0,27.0,70,0.00,,,0.00,49.000000,,2013-02-23 02:11:00,
2013-02-22 18:32:00,17.0,10.0,-100.00,WSW,237,10.0,25.0,72,0.00,,,0.00,2.000000,,2013-02-23 02:32:00,
2013-02-22 18:42:00,17.0,10.0,-100.00,WSW,237,10.0,25.0,72,0.00,,,0.00,2.000000,,2013-02-23 02:42:00,
2013-02-22 18:52:00,17.0,10.0,-100.00,WSW,237,10.0,25.0,72,0.00,,,0.00,2.000000,,2013-02-23 02:52:00,
2013-02-22 19:01:00,17.0,10.0,-100.00,WSW,237,10.0,25.0,72,0.00,,,0.00,2.000000,,2013-02-23 03:01:00,
2013-02-22 19:11:00,17.0,10.0,-100.00,WSW,237,10.0,25.0,72,0.00,,,0.00,2.000000,,2013-02-23 03:11:00,
2013-02-22 20:32:00,19.0,10.0,-100.00,WSW,239,21.0,27.0,67,-99.99,,,0.00,0.000000,,2013-02-23 04:32:00,
2013-02-22 20:42:00,19.0,10.0,-100.00,WSW,239,21.0,27.0,67,-99.99,,,0.00,0.000000,,2013-02-23 04:42:00,
2013-02-22 20:52:00,19.0,10.0,-100.00,WSW,239,21.0,27.0,67,-99.99,,,0.00,0.000000,,2013-02-23 04:52:00,
2013-02-22 21:02:00,19.0,10.0,-100.00,WSW,239,21.0,27.0,67,-99.99,,,0.00,0.000000,,2013-02-23 05:02:00,
2013-02-22 21:11:00,19.0,10.0,-100.00,WSW,239,21.0,27.0,67,-99.99,,,0.00,0.000000,,2013-02-23 05:11:00,
2013-02-22 21:42:00,20.0,11.0,-100.00,WSW,246,0.0,29.0,68,0.00,,,-99.99,0.000000,,2013-02-23 05:42:00,
2013-02-22 21:52:00,20.0,11.0,-100.00,WSW,246,0.0,29.0,68,0.00,,,-99.99,0.000000,,2013-02-23 05:52:00,
2013-02-22 22:01:00,20.0,11.0,-100.00,WSW,246,0.0,29.0,68,0.00,,,-99.99,0.000000,,2013-02-23 06:01:00,
2013-02-22 22:11:00,20.0,11.0,-100.00,WSW,246,0.0,29.0,68,0.00,,,-99.99,0.000000,,2013-02-23 06:11:00,
2013-02-22 22:32:00,21.0,11.0,-100.00,WSW,243,22.0,33.0,65,0.00,,,0.00,0.000000,,2013-02-23 06:32:00,
2013-02-22 22:42:00,21.0,11.0,-100.00,WSW,243,22.0,33.0,65,0.00,,,0.00,0.000000,,2013-02-23 06:42:00,
2013-02-22 22:52:00,21.0,11.0,-100.00,WSW,243,22.0,33.0,65,0.00,,,0.00,0.000000,,2013-02-23 06:52:00,
2013-02-22 23:01:00,21.0,11.0,-100.00,WSW,243,22.0,33.0,65,0.00,,,0.00,0.000000,,2013-02-23 07:01:00,
2013-02-22 23:11:00,21.0,11.0,-100.00,WSW,243,22.0,33.0,65,0.00,,,0.00,0.000000,,2013-02-23 07:11:00,
2013-02-22 23:32:00,21.0,11.0,-100.00,WSW,245,0.0,29.0,64,0.00,,,0.00,0.000000,,2013-02-23 07:32:00,
2013-02-22 23:42:00,21.0,11.0,-100.00,WSW,245,0.0,29.0,64,0.00,,,0.00,0.000000,,2013-02-23 07:42:00,
2013-02-22 23:52:00,21.0,11.0,-100.00,WSW,245,0.0,29.0,64,0.00,,,0.00,0.000000,,2013-02-23 07:52:00,